SCP
0 0 0 0 0 0 0 0 0 0 0 0 0 0 0 0 0 0 0 0 0 0 0 0 0 0 0 0 0 0 0 0 0 0 0 0 0 0 0 0 0 0 0 0
0 0 0 0 0 0 0 0 0 0 0 0 0 0 0 0 0 0 0 0 0 0 0 0 0 0 0 0 0 0 0 0 0 0 0 0 0 0 0 0 0 0 0 0
0 0 0 0 0 0 0 0 0 0 0 0 0 0 0 0 0 0 0 0 0 0 0 0 0 0 0 0 0 0 0 0 0 0 0 0 0 0 0 0 0 0 0 0
0 0 0 0 0 0 0 0 0 0 0 0 0 0 0 0 0 0 0 0 0 0 0 0 0 0 0 0 0 0 0 0 0 0 0 0 0 0 0 0 0 0 0 0
0 0 0 0 0 0 0 0 0 0 0 0 0 0 0 0 0 0 0 0 0 0 0 0 0 0 0 0 0 0 0 0 0 0 0 0 0 0 0 0 0 0 0 0
0 0 0 0 0 0 0 0 0 0 0 0 0 0 0 0 0 0 0 0 0 0 0 0 0 0 0 0 0 0 0 0 0 0 0 0 0 0 0 0 0 0 0 0
0 0 0 0 0 0 0 0 0 0 0 0 0 0 0 0 0 0 0 0 0 0 0 0 0 0 0 0 0 0 0 0 0 0 0 0 0 0 0 0 0 0 0 0
0 0 0 0 0 0 0 0 0 0 0 0 0 0 0 0 0 0 0 0 0 0 0 0 0 0 0 0 0 0 0 0 0 0 0 0 0 0 0 0 0 0 0 0
0 0 0 0 0 0 0 0 0 0 0 0 0 0 0 0 0 0 0 0 0 0 0 0 0 0 0 0 0 0 0 0 0 0 0 0 0 0 0 0 0 0 0 0
0 0 0 0 0 0 0 0 0 0 0 0 0 0 0 0 0 0 0 0 0 0 0 0 0 0 0 0 0 0 0 0 0 0 0 0 0 0 0 0 0 0 0 0
0 0 0 0 0 0 0 0 0 0 0 0 0 0 0 0 0 0 0 0 0 0 0 0 0 0 0 0 0 0 0 0 0 0 0 0 0 0 0 0 0 0 0 0
0 0 0 0 0 0 0 0 0 0 0 0 0 0 0 0 0 0 0 0 0 0 0 0 0 0 0 0 0 0 0 0 0 0 0 0 0 0 0 0 0 0 0 0
0 0 0 0 0 0 0 0 0 0 0 0 0 0 0 0 0 0 0 0 0 0 0 0 0 0 0 0 0 0 0 0 0 0 0 0 0 0 0 0 0 0 0 0
0 0 0 0 0 0 0 0 0 0 0 0 0 0 0 0 0 0 0 0 0 0 0 0 0 0 0 0 0 0 0 0 0 0 0 0 0 0 0 0 0 0 0 0
0 0 0 0 0 0 0 0 0 0 0 0 0 0 0 0 0 0 0 0 0 0 0 0 0 0 0 0 0 0 0 0 0 0 0 0 0 0 0 0 0 0 0 0
0 0 0 0 0 0 0 0 0 0 0 0 0 0 0 0 0 0 0 0 0 0 0 0 0 0 0 0 0 0 0 0 0 0 0 0 0 0 0 0 0 0 0 0
0 0 0 0 0 0 0 0 0 0 0 0 0 0 0 0 0 0 0 0 0 0 0 0 0 0 0 0 0 0 0 0 0 0 0 0 0 0 0 0 0 0 0 0
0 0 0 0 0 0 0 0 0 0 0 0 0 0 0 0 0 0 0 0 0 0 0 0 0 0 0 0 0 0 0 0 0 0 0 0 0 0 0 0 0 0 0 0
0 0 0 0 0 0 0 0 0 0 0 0 0 0 0 0 0 0 0 0 0 0 0 0 0 0 0 0 0 0 0 0 0 0 0 0 0 0 0 0 0 0 0 0
0 0 0 0 0 0 0 0 0 0 0 0 0 0 0 0 0 0 0 0 0 0 0 0 0 0 0 0 0 0 0 0 0 0 0 0 0 0 0 0 0 0 0 0
0 0 0 0 0 0 0 0 0 0 0 0 0 0 0 0 0 0 0 0 0 0 0 0 0 0 0 0 0 0 0 0 0 0 0 0 0 0 0 0 0 0 0 0
0 0 0 0 0 0 0 0 0 0 0 0 0 0 0 0 0 0 0 0 0 0 0 0 0 0 0 0 0 0 0 0 0 0 0 0 0 0 0 0 0 0 0 0
0 0 0 0 0 0 0 0 0 0 0 0 0 0 0 0 0 0 0 0 0 0 0 0 0 0 0 0 0 0 0 0 0 0 0 0 0 0 0 0 0 0 0 0
0 0 0 0 0 0 0 0 0 0 0 0 0 0 0 0 0 0 0 0 0 0 0 0 0 0 0 0 0 0 0 0 0 0 0 0 0 0 0 0 0 0 0 0
0 0 0 0 0 0 0 0 0 0 0 0 0 0 0 0 0 0 0 0 0 0 0 0 0 0 0 0 0 0 0 0 0 0 0 0 0 0 0 0 0 0 0 0
0 0 0 0 0 0 0 0 0 0 0 0 0 0 0 0 0 0 0 0 0 0 0 0 0 0 0 0 0 0 0 0 0 0 0 0 0 0 0 0 0 0 0 0
0 0 0 0 0 0 0 0 0 0 0 0 0 0 0 0 0 0 0 0 0 0 0 0 0 0 0 0 0 0 0 0 0 0 0 0 0 0 0 0 0 0 0 0
Wind_Speed
5 5 5 7 8 9 10 9 9 9 10 12 9 8 7 6 6 5 6 6 6 5 4 4 3 2 2 2 2 2 2 3 3 3 3 3 3 4 4 4 4 4 4 4
4 2 4 8 11 11 12 11 13 13 15 12 9 7 7 7 7 8 8 7 7 6 5 5 4 4 3 3 2 2 2 3 3 3 3 3 3 4 4 4 4 4 4 4
3 4 5 9 10 11 9 9 10 12 11 6 6 7 8 8 8 9 9 8 7 7 6 6 5 4 4 3 2 2 2 3 3 3 3 3 3 3 4 4 4 4 4 4
2 2 7 4 1 6 9 10 12 12 11 9 9 8 8 8 9 9 9 8 7 7 6 5 5 4 3 2 2 2 3 3 3 3 3 3 3 4 4 4 4 4 5 5
1 4 10 8 4 6 7 8 10 13 13 10 6 7 7 7 8 9 8 7 7 6 6 5 5 4 3 3 3 3 3 3 3 3 3 3 4 4 4 4 4 5 5 5
3 4 8 4 3 3 3 7 5 9 9 7 3 5 5 2 5 6 6 5 5 4 4 5 5 4 4 4 4 4 4 4 3 3 4 4 4 4 4 4 5 5 5 5
6 7 11 5 4 6 5 4 2 6 6 5 7 7 4 3 4 4 5 5 4 4 5 5 4 4 5 5 6 4 3 3 3 3 4 4 4 4 4 4 4 5 5 5
7 8 12 7 9 10 7 1 2 4 5 6 8 7 6 5 5 5 4 4 5 5 5 4 4 5 6 6 5 3 2 3 3 4 3 3 3 4 4 4 4 4 5 5
12 11 3 9 11 7 3 5 5 5 6 6 8 8 8 7 6 6 6 5 4 5 5 4 4 5 7 6 3 3 3 3 4 3 3 3 4 4 4 3 3 4 4 5
9 14 11 11 13 12 10 11 10 8 7 7 9 9 9 8 7 7 6 5 4 5 5 5 5 6 6 4 3 3 4 4 4 4 4 3 3 3 4 4 4 4 4 5
11 12 9 12 15 15 13 11 11 11 10 10 10 10 10 9 8 7 6 5 5 6 7 7 6 6 5 4 4 4 4 4 4 4 4 4 4 4 5 5 5 5 5 5
13 10 9 8 7 8 10 11 11 11 10 10 10 11 10 9 8 7 7 6 6 7 7 7 6 6 5 5 5 5 5 5 4 4 3 3 4 4 6 7 9 10 10 9
14 9 10 11 10 9 10 11 10 10 11 10 9 9 9 8 7 6 6 7 8 8 8 7 6 6 5 5 6 6 6 5 4 4 4 4 4 4 4 4 6 8 9 9
15 10 12 13 13 11 10 10 8 8 8 8 7 6 7 7 6 7 8 8 7 7 6 6 6 7 5 5 6 6 6 5 5 4 4 4 4 4 4 5 5 5 6 9
16 15 15 11 10 9 7 6 7 8 8 7 6 7 7 8 9 9 7 5 4 5 6 5 6 6 4 5 6 6 5 4 4 4 4 4 4 4 4 5 5 6 5 6
9 9 11 12 15 13 9 8 10 11 9 8 7 8 8 8 8 6 4 4 5 7 7 6 7 5 5 5 5 5 5 5 4 4 3 4 4 4 4 5 5 5 6 5
10 12 12 12 14 13 11 11 11 11 8 9 9 7 6 5 5 6 5 5 6 6 6 6 6 4 5 6 6 4 4 4 5 4 4 4 4 5 5 5 5 6 6 6
15 15 12 11 10 10 10 10 9 9 9 9 6 5 6 7 8 7 5 3 3 4 5 5 4 4 5 5 5 4 4 4 4 4 4 4 4 4 5 5 6 6 5 6
13 13 12 11 10 9 9 9 8 8 7 5 6 7 7 7 6 5 4 4 5 6 5 4 5 4 5 6 5 4 4 4 4 4 4 4 4 4 5 5 5 5 5 5
10 9 9 9 8 8 8 7 6 6 5 5 5 6 6 6 5 4 5 6 6 4 3 4 5 5 5 6 6 4 5 5 5 4 4 4 4 5 5 5 5 5 5 5
9 8 7 8 7 7 6 6 5 6 5 5 6 7 7 5 4 5 5 6 4 3 3 4 4 4 4 4 5 4 4 4 5 4 4 4 4 5 5 5 5 5 5 5
5 5 6 5 5 5 4 4 4 5 4 5 5 5 4 4 4 4 5 4 2 3 3 3 4 4 5 5 4 4 4 4 4 4 4 4 5 5 5 5 5 5 5 5
4 4 4 4 4 4 2 3 4 4 5 5 6 6 6 5 4 4 4 3 3 4 3 3 4 5 5 4 3 4 4 5 5 5 5 5 5 5 5 5 5 5 5 5
3 2 2 1 2 2 3 3 2 2 3 3 3 4 4 3 3 3 2 3 4 5 3 4 6 6 5 3 4 4 4 4 4 4 4 4 4 4 5 5 5 5 5 6
2 2 1 2 2 3 3 1 1 1 1 1 1 2 2 2 3 2 2 3 4 4 3 4 6 5 4 3 4 4 4 4 4 4 4 4 4 5 5 5 5 5 5 5
1 2 2 2 2 1 1 1 2 2 2 1 1 1 1 1 1 2 2 3 4 4 3 3 3 4 3 4 4 4 4 4 4 4 4 4 5 5 5 5 6 5 5 5
0 0 0 0 1 1 2 2 2 3 3 2 2 2 1 1 1 2 2 2 3 3 2 2 3 3 3 3 3 3 3 3 4 4 4 4 4 5 5 6 5 5 5 5
Wind_Direction
273 283 273 258 248 227 222 228 236 249 257 268 277 274 268 258 252 247 244 239 238 244 246 246 254 262 275 287 300 308 315 322 325 331 336 340 341 340 339 339 337 336 332 328
281 272 281 268 254 239 237 238 244 260 269 270 277 267 260 250 243 244 242 240 241 243 240 240 241 246 253 263 274 286 296 305 316 324 330 333 333 334 332 333 332 331 326 321
273 318 304 265 237 210 216 220 220 237 253 265 262 255 251 246 243 243 245 243 240 240 238 236 235 236 242 249 259 270 284 296 306 314 319 321 322 320 321 323 323 321 317 314
295 329 252 246 123 205 222 241 230 245 262 264 265 276 267 252 245 246 246 241 238 237 239 238 233 232 237 237 240 257 274 286 296 298 302 310 312 311 314 316 314 310 310 309
217 269 277 283 221 192 212 263 234 236 254 264 278 289 269 243 238 242 243 242 239 234 236 235 227 219 216 223 233 247 261 272 280 282 286 295 299 304 310 309 306 305 303 303
193 240 253 259 142 165 184 268 228 217 244 258 241 274 289 256 238 244 244 242 239 234 231 230 226 207 210 223 230 241 252 264 274 275 275 280 288 295 299 298 296 299 298 299
211 240 264 255 152 158 202 254 189 208 233 225 224 249 303 301 263 248 246 241 231 224 226 232 214 198 215 227 236 245 252 259 268 270 270 273 280 286 290 293 293 293 294 297
186 217 251 176 160 200 228 282 234 240 237 234 245 263 274 275 268 259 252 240 225 224 234 230 206 202 221 234 239 235 236 248 258 264 267 269 274 282 284 284 285 288 292 296
200 222 259 178 206 228 254 258 261 257 254 248 257 261 263 264 261 257 251 244 229 227 233 232 214 210 226 236 220 208 224 241 252 261 265 265 264 269 274 273 274 282 286 290
246 257 251 243 249 255 251 252 260 260 260 251 255 261 261 260 255 249 247 241 234 225 229 236 224 222 231 227 191 197 222 238 243 247 255 257 259 258 262 264 267 273 281 286
248 264 275 256 243 245 249 249 253 255 251 251 254 256 255 255 250 247 246 238 226 226 232 236 227 226 225 205 188 207 226 235 239 240 245 251 254 255 260 262 266 275 278 281
235 229 221 246 241 231 235 243 245 248 252 247 240 248 251 250 248 244 242 238 232 231 233 236 227 227 218 199 195 207 225 232 233 234 238 245 256 269 265 269 276 277 278 283
241 246 243 259 260 246 245 250 247 240 243 250 245 240 243 248 247 240 239 235 233 234 233 231 225 226 214 197 198 210 225 230 232 233 236 242 250 259 275 284 279 280 282 289
242 249 259 256 256 254 249 252 250 246 245 245 246 242 240 245 247 240 239 238 236 236 233 225 223 227 209 195 203 215 226 229 230 233 238 243 247 254 261 271 283 287 293 295
238 232 242 257 262 261 252 246 248 252 249 247 239 237 235 238 243 246 245 237 228 230 230 223 226 229 195 194 205 215 221 223 227 235 239 243 248 253 258 263 269 281 291 298
236 235 240 248 255 258 253 241 243 252 249 246 242 238 235 238 245 250 238 207 214 232 229 224 230 224 191 195 204 213 222 226 225 230 235 239 243 248 254 259 266 271 277 287
229 243 239 241 246 249 244 238 240 247 246 243 244 239 232 233 242 243 236 224 230 238 230 224 226 207 192 195 201 210 216 218 219 229 233 236 241 247 253 258 263 269 274 282
227 235 235 235 241 244 245 240 237 239 240 242 238 226 224 225 235 238 232 220 233 246 238 226 211 193 192 198 205 211 211 214 217 226 232 238 245 250 254 258 263 270 280 287
228 233 238 238 237 236 243 245 239 234 234 225 221 228 232 232 231 226 201 200 217 236 236 214 210 195 202 205 204 207 209 214 220 228 234 240 246 250 253 256 262 268 274 279
231 231 234 238 233 229 236 241 233 228 222 209 212 225 234 232 215 202 202 220 226 229 194 195 201 204 206 207 203 207 209 214 220 226 231 237 244 251 253 257 262 267 271 273
231 231 230 234 239 235 233 230 221 226 220 201 206 219 229 229 202 193 205 234 231 191 187 192 198 203 203 201 201 208 211 216 221 225 230 237 245 251 255 259 262 265 270 273
229 228 231 231 232 237 231 218 216 217 213 211 213 211 209 213 207 212 222 232 211 182 193 203 207 205 203 197 202 208 214 219 225 228 232 237 242 248 253 259 263 268 270 273
231 227 228 222 219 225 226 213 209 210 215 214 211 208 211 212 203 208 233 214 193 198 206 211 210 202 192 193 205 211 215 220 225 230 235 240 243 248 254 259 264 267 271 274
236 231 227 214 168 185 229 232 210 218 221 224 216 207 200 202 222 229 228 185 193 198 210 209 206 199 189 200 207 214 219 223 229 234 239 244 248 251 255 259 263 267 270 274
225 215 191 175 202 232 243 224 171 181 193 228 238 221 212 212 213 210 198 199 195 194 206 207 205 196 195 206 212 218 224 229 234 238 239 242 247 252 256 258 261 265 269 272
230 223 220 218 220 223 200 182 200 206 202 221 244 232 212 191 179 187 192 193 195 199 203 203 198 196 207 213 219 225 230 234 237 239 244 248 252 255 257 259 263 264 267 270
251 185 163 220 232 219 210 208 214 218 213 215 236 234 204 182 178 189 195 195 197 203 204 203 204 208 213 218 224 230 234 237 239 242 245 248 252 255 259 261 264 266 268 270